Location: Svitavy
(49.7500°N, 16.4667°E)
Time: 21:41:54
(UTC+01:00)

ISS - Pass Details

Date: 21 January 2020
Orbit: 415 x 423 km, 51.6° (Epoch: 25 February)

Event Time Altitude Azimuth Distance (km) Brightness Sun altitude
Rises 19:05:27 0° 227° (SW) 2,369 0.8 -24.7°
Reaches altitude 10° 19:07:37 10° 220° (SW) 1,506 -0.4 -25.0°
Enters shadow 19:08:44 18° 211° (SSW) 1,100 -1.3 -25.2°
